Weather History for Osceola Municipal, IA

Change the Weather History Date:

Wednesday, November 6, 2013

  Actual Average (KLWD) Record (KLWD)
Temperature  
Mean Temperature 36 °F 44 °F  
Max Temperature 44 °F 54 °F 74 °F (1980)
Min Temperature 29 °F 35 °F 13 °F (1991)
Degree Days  
Heating Degree Days 28 21  
Month to date heating degree days 117  
Since 1 July heating degree days 601  
Cooling Degree Days 0 0  
Month to date cooling degree days 0  
Year to date cooling degree days 946  
Moisture  
Dew Point 31 °F    
Average Humidity 80    
Maximum Humidity 95    
Minimum Humidity 47    
Precipitation  
Precipitation 0.00 in 0.09 in 1.50 in (1972)
Month to date precipitation 0.69  
Sea Level Pressure  
Sea Level Pressure 30.12 in    
Wind  
Wind Speed 13 mph (WNW)    
Max Wind Speed 20 mph    
Max Gust Speed 28 mph    
Visibility 9 miles    
Events      
T = Trace of Precipitation, MM = Missing Value Source: NWS Daily Summary

Daily Weather History Graph

Daily Weather History Graph

Search for Another Location

Airport:

Trip Planner

Search our weather history database for the weather conditions in past years. The results will help you decide how hot, cold, wet, or windy it might be!

Date:

Astronomy

Nov. 06, 2013 Rise Set
Actual Time 6:51 AM CST 5:04 PM CST
Civil Twilight 6:23 AM CST 5:33 PM CST
Nautical Twilight 5:50 AM CST 6:05 PM CST
Astronomical Twilight 5:18 AM CST 6:38 PM CST
Moon 10:08 AM CST (11/6) 8:08 PM CST (11/6)
Length of Visible Light 11h 10m
Length of Day
10h 12m
Waxing Crescent, 14% of the Moon is Illuminated
Nov 6
Waxing Crescent
Nov 9
First Quarter
Nov 17
Full
Nov 25
Last Quarter
Dec 2
New

Hourly Weather History & Observations

Time (CST) Temp. Windchill Dew Point Humidity Pressure Visibility Wind Dir Wind Speed Gust Speed Precip Events Conditions
12:35 AM 41.2 °F 32.4 °F 39.4 °F 93% 29.86 in 10.0 mi WNW 18.4 mph 23.0 mph N/A   Overcast
12:55 AM 40.1 °F 31.6 °F 38.3 °F 93% 29.86 in 10.0 mi NW 16.1 mph 21.9 mph N/A   Overcast
1:15 AM 39.4 °F 30.7 °F 37.9 °F 95% 29.88 in 5.0 mi WNW 16.1 mph 23.0 mph N/A   Overcast
1:35 AM 38.7 °F 30.1 °F 37.4 °F 95% 29.90 in 7.0 mi WNW 15.0 mph 19.6 mph N/A   Overcast
1:55 AM 37.9 °F 29.2 °F 36.3 °F 94% 29.90 in 10.0 mi WNW 15.0 mph 20.7 mph N/A   Overcast
2:15 AM 36.9 °F 27.1 °F 35.6 °F 95% 29.90 in 7.0 mi NW 17.3 mph 23.0 mph N/A   Overcast
2:35 AM 36.5 °F 26.7 °F 35.1 °F 95% 29.93 in 5.0 mi WNW 17.3 mph 24.2 mph N/A   Overcast
2:55 AM 35.6 °F 24.8 °F 34.2 °F 94% 29.91 in 4.0 mi NW 19.6 mph 27.6 mph N/A   Overcast
3:15 AM 35.6 °F 25.2 °F 34.0 °F 94% 29.91 in 3.0 mi NW 18.4 mph 23.0 mph N/A   Overcast
3:35 AM 35.6 °F 24.8 °F 34.2 °F 94% 29.95 in 4.0 mi NW 19.6 mph 26.5 mph N/A   Overcast
3:55 AM 35.6 °F 25.2 °F 34.0 °F 94% 29.97 in 4.0 mi NW 18.4 mph 24.2 mph N/A   Overcast
4:15 AM 35.6 °F 24.8 °F 33.8 °F 93% 29.94 in 5.0 mi NW 19.6 mph 23.0 mph N/A   Overcast
4:35 AM 35.2 °F 25.8 °F 33.8 °F 94% 29.94 in 7.0 mi NNW 15.0 mph 25.3 mph N/A   Overcast
4:55 AM 35.6 °F 26.6 °F 33.8 °F 93% 29.98 in 7.0 mi NW 13.8 mph 23.0 mph N/A   Overcast
5:15 AM 35.6 °F 25.9 °F 33.8 °F 93% 29.98 in 4.0 mi NW 16.1 mph - N/A   Overcast
5:35 AM 35.4 °F 26.0 °F 33.8 °F 94% 29.99 in 3.0 mi NW 15.0 mph 23.0 mph N/A   Overcast
5:55 AM 35.1 °F 24.5 °F 33.4 °F 94% 29.99 in 3.0 mi NW 18.4 mph 21.9 mph N/A   Overcast
6:15 AM 34.7 °F 24.7 °F 33.1 °F 94% 30.00 in 4.0 mi NW 16.1 mph 26.5 mph N/A   Overcast
6:35 AM 34.7 °F 25.1 °F 33.1 °F 94% 30.01 in 5.0 mi NW 15.0 mph 24.2 mph N/A   Overcast
6:55 AM 34.9 °F 25.7 °F 32.9 °F 92% 30.02 in 10.0 mi NW 13.8 mph - N/A   Overcast
7:15 AM 35.1 °F 27.4 °F 32.5 °F 91% 30.04 in 10.0 mi NNW 10.4 mph 16.1 mph N/A   Overcast
7:35 AM 35.2 °F 27.6 °F 32.7 °F 91% 30.06 in 10.0 mi NW 10.4 mph - N/A   Overcast
7:55 AM 35.6 °F 28.0 °F 32.7 °F 89% 30.08 in 10.0 mi NW 10.4 mph 16.1 mph N/A   Overcast
8:15 AM 35.6 °F 28.0 °F 32.4 °F 88% 30.09 in 10.0 mi NW 10.4 mph 17.3 mph N/A   Overcast
8:35 AM 35.6 °F 27.1 °F 32.0 °F 87% 30.10 in 10.0 mi NW 12.7 mph - N/A   Overcast
8:55 AM 35.6 °F 27.1 °F 32.0 °F 87% 30.12 in 10.0 mi NW 12.7 mph - N/A   Overcast
9:15 AM 36.0 °F 27.1 °F 32.0 °F 86% 30.13 in 10.0 mi NW 13.8 mph - N/A   Overcast
9:35 AM 35.8 °F 26.1 °F 32.0 °F 86% 30.13 in 10.0 mi NW 16.1 mph 19.6 mph N/A   Overcast
9:55 AM 35.8 °F 26.9 °F 31.8 °F 86% 30.14 in 10.0 mi NW 13.8 mph 21.9 mph N/A   Overcast
10:15 AM 36.5 °F 27.4 °F 32.0 °F 84% 30.15 in 10.0 mi NW 15.0 mph - N/A   Overcast
10:35 AM 37.8 °F 29.4 °F 32.0 °F 80% 30.15 in 10.0 mi NW 13.8 mph - N/A   Overcast
10:55 AM 39.6 °F 32.1 °F 32.9 °F 77% 30.16 in 10.0 mi NNW 12.7 mph 19.6 mph N/A   Mostly Cloudy
11:15 AM 40.6 °F 34.3 °F 32.7 °F 73% 30.16 in 10.0 mi NW 10.4 mph 20.7 mph N/A   Mostly Cloudy
11:35 AM 41.0 °F 34.7 °F 32.5 °F 72% 30.16 in 10.0 mi NNW 10.4 mph 18.4 mph N/A   Mostly Cloudy
11:55 AM 41.5 °F 35.4 °F 31.8 °F 68% 30.16 in 10.0 mi NNW 10.4 mph - N/A   Mostly Cloudy
12:15 PM 42.3 °F 35.5 °F 32.7 °F 69% 30.16 in 10.0 mi WNW 12.7 mph 20.7 mph N/A   Mostly Cloudy
12:35 PM 42.1 °F 34.5 °F 31.6 °F 67% 30.16 in 10.0 mi WNW 15.0 mph 19.6 mph N/A   Mostly Cloudy
12:55 PM 43.0 °F 36.0 °F 31.6 °F 64% 30.16 in 10.0 mi WNW 13.8 mph 20.7 mph N/A   Scattered Clouds
1:15 PM 43.3 °F 36.8 °F 31.3 °F 62% 30.16 in 10.0 mi WNW 12.7 mph 19.6 mph N/A   Scattered Clouds
1:35 PM 43.0 °F 35.7 °F 30.0 °F 60% 30.16 in 10.0 mi WNW 15.0 mph 19.6 mph N/A   Scattered Clouds
1:55 PM 43.7 °F 37.7 °F 28.8 °F 56% 30.16 in 10.0 mi NW 11.5 mph 23.0 mph N/A   Clear
2:15 PM 43.9 °F 37.2 °F 27.0 °F 51% 30.17 in 10.0 mi WNW 13.8 mph 18.4 mph N/A   Clear
2:35 PM 44.2 °F 37.6 °F 26.6 °F 50% 30.18 in 10.0 mi WNW 13.8 mph 18.4 mph N/A   Clear
2:55 PM 44.1 °F 36.8 °F 25.9 °F 49% 30.18 in 10.0 mi WNW 16.1 mph - N/A   Clear
3:15 PM 44.4 °F 39.0 °F 25.2 °F 47% 30.18 in 10.0 mi NW 10.4 mph 16.1 mph N/A   Clear
3:35 PM 44.1 °F 38.6 °F 26.2 °F 50% 30.19 in 10.0 mi WNW 10.4 mph 16.1 mph N/A   Clear
3:55 PM 43.5 °F 37.9 °F 25.0 °F 48% 30.20 in 10.0 mi NW 10.4 mph - N/A   Clear
4:15 PM 42.8 °F 38.0 °F 25.2 °F 50% 30.21 in 10.0 mi WNW 8.1 mph - N/A   Clear
4:35 PM 41.9 °F 36.3 °F 25.5 °F 52% 30.21 in 10.0 mi WNW 9.2 mph - N/A   Clear
4:55 PM 40.1 °F 36.1 °F 25.7 °F 56% 30.21 in 10.0 mi WNW 5.8 mph - N/A   Clear
5:15 PM 37.8 °F 34.2 °F 26.2 °F 63% 30.22 in 10.0 mi West 4.6 mph - N/A   Clear
5:35 PM 35.8 °F 33.0 °F 26.8 °F 70% 30.22 in 10.0 mi West 3.5 mph - N/A   Clear
5:55 PM 36.1 °F 33.5 °F 27.5 °F 71% 30.21 in 10.0 mi West 3.5 mph - N/A   Clear
6:15 PM 35.1 °F 30.1 °F 27.3 °F 73% 30.22 in 10.0 mi West 5.8 mph - N/A   Clear
6:35 PM 33.8 °F 28.6 °F 28.0 °F 79% 30.23 in 10.0 mi West 5.8 mph - N/A   Clear
6:55 PM 33.1 °F 26.9 °F 28.0 °F 82% 30.23 in 10.0 mi West 6.9 mph - N/A   Clear
7:15 PM 32.9 °F 26.7 °F 27.9 °F 82% 30.24 in 10.0 mi West 6.9 mph - N/A   Clear
7:35 PM 32.9 °F 28.5 °F 27.7 °F 81% 30.24 in 10.0 mi West 4.6 mph - N/A   Clear
7:55 PM 32.4 °F 26.9 °F 27.5 °F 82% 30.24 in 10.0 mi West 5.8 mph - N/A   Clear
8:15 PM 32.0 °F 27.5 °F 27.1 °F 82% 30.24 in 10.0 mi West 4.6 mph - N/A   Clear
8:35 PM 32.0 °F 26.4 °F 27.0 °F 82% 30.24 in 10.0 mi West 5.8 mph - N/A   Clear
8:55 PM 31.8 °F 27.3 °F 27.0 °F 82% 30.25 in 10.0 mi WSW 4.6 mph - N/A   Clear
9:15 PM 32.5 °F 28.1 °F 27.0 °F 80% 30.26 in 10.0 mi WSW 4.6 mph - N/A   Clear
9:35 PM 31.6 °F 27.0 °F 26.6 °F 82% 30.26 in 10.0 mi WSW 4.6 mph - N/A   Clear
9:55 PM 30.0 °F 25.2 °F 26.4 °F 86% 30.26 in 10.0 mi SW 4.6 mph - N/A   Scattered Clouds
10:15 PM 30.2 °F 25.4 °F 26.8 °F 87% 30.28 in 10.0 mi WSW 4.6 mph - N/A   Scattered Clouds
10:35 PM 29.7 °F 24.7 °F 26.2 °F 87% 30.28 in 10.0 mi WSW 4.6 mph - N/A   Clear
10:55 PM 30.2 °F 26.7 °F 27.3 °F 89% 30.28 in 10.0 mi SW 3.5 mph - N/A   Mostly Cloudy
11:15 PM 30.7 °F 27.3 °F 28.0 °F 90% 30.27 in 10.0 mi SW 3.5 mph - N/A   Overcast
11:35 PM 30.7 °F 26.0 °F 28.0 °F 90% 30.26 in 10.0 mi SW 4.6 mph - N/A   Scattered Clouds
11:55 PM 30.2 °F 26.7 °F 27.7 °F 90% 30.26 in 10.0 mi SW 3.5 mph - N/A   Clear